EW3125 Weather Reports


Display with metric or nautical units.
time (UTC)temp
F
wind
direction
speed
MPH
gust
MPH
rain 1hr
in
rain 24hr
in
rain mn
in
humidity
%
barometer
mb
20260504081541 60 157 1.0 4.0 0.00 0.00 0.00 79 1015.2
20260504050446 65 137 4.0 9.0 0.00 0.00 0.00 68 1017.3
20260504044540 65 159 4.0 11.0 0.00 0.00 0.00 68 1017.2
20260504043044 65 150 3.0 11.0 0.00 0.00 0.00 66 1017.5
20260504041542 66 149 6.0 10.0 0.00 0.00 0.00 66 1017.6
20260504040052 66 175 4.0 10.0 0.00 0.00 0.00 65 1017.8
20260504034552 65 137 4.0 8.0 0.00 0.00 0.00 65 1017.5
20260504033042 65 143 4.0 9.0 0.00 0.00 0.00 66 1017.5
20260504031541 65 183 3.0 5.0 0.00 0.00 0.00 65 1017.5
20260504030046 65 158 2.0 5.0 0.00 0.00 0.00 63 1017.4
20260504024542 66 137 2.0 6.0 0.00 0.00 0.00 61 1017.2
20260504023043 66 127 1.0 3.0 0.00 0.00 0.00 59 1017.2
20260504021541 67 116 0.0 2.0 0.00 0.00 0.00 59 1017.0
20260504020051 68 134 1.0 2.0 0.00 0.00 0.00 56 1016.7
20260504014548 69 130 1.0 2.0 0.00 0.00 0.00 54 1016.4
20260504013042 70 126 1.0 1.0 0.00 0.00 0.00 52 1016.5
20260504011547 71 146 1.0 2.0 0.00 0.00 0.00 51 1016.5
20260504010042 72 155 0.0 2.0 0.00 0.00 0.00 49 1016.4
20260504004541 74 0 0.0 2.0 0.00 0.00 0.00 47 1016.4
20260504003041 75 169 1.0 5.0 0.00 0.00 0.00 43 1016.5
20260504001538 76 169 3.0 8.0 0.00 0.00 0.00 40 1016.8
20260504000047 77 192 3.0 11.0 0.00 0.00 0.00 38 1017.0
20260503234543 78 175 6.0 11.0 0.00 0.00 0.00 37 1017.0
20260503233040 78 149 5.0 11.0 0.00 0.00 0.00 39 1017.0
20260503231541 77 198 7.0 12.0 0.00 0.00 0.00 37 1016.9
20260503230047 77 190 5.0 11.0 0.00 0.00 0.00 39 1017.0
20260503224535 77 178 7.0 11.0 0.00 0.00 0.00 38 1017.3
20260503223045 78 169 5.0 14.0 0.00 0.00 0.00 38 1017.5
20260503221541 78 213 3.0 11.0 0.00 0.00 0.00 37 1017.6
20260503220043 79 96 4.0 9.0 0.00 0.00 0.00 38 1017.8
20260503214543 79 206 4.0 12.0 0.00 0.00 0.00 39 1017.9
20260503213040 79 145 5.0 18.0 0.00 0.00 0.00 36 1018.3
20260503211554 78 34 5.0 16.0 0.00 0.00 0.00 38 1018.6
20260503210039 79 148 6.0 13.0 0.00 0.00 0.00 37 1018.8
20260503204542 78 156 6.0 10.0 0.00 0.00 0.00 37 1019.2
20260503203047 78 244 3.0 13.0 0.00 0.00 0.00 38 1019.5
20260503201543 78 182 6.0 11.0 0.00 0.00 0.00 37 1019.6
20260503200055 78 136 5.0 11.0 0.00 0.00 0.00 39 1019.9
20260503194542 78 155 6.0 12.0 0.00 0.00 0.00 40 1020.1
20260503193050 77 178 4.0 9.0 0.00 0.00 0.00 38 1020.3
20260503191545 78 153 6.0 13.0 0.00 0.00 0.00 34 1020.6
20260503190047 77 115 6.0 11.0 0.00 0.00 0.00 39 1020.7
20260503184554 77 201 5.0 11.0 0.00 0.00 0.00 36 1021.0
20260503183043 77 194 3.0 8.0 0.00 0.00 0.00 39 1021.0
20260503181559 76 218 8.0 14.0 0.00 0.00 0.00 39 1021.4
20260503180050 76 178 7.0 13.0 0.00 0.00 0.00 42 1021.8
20260503174549 76 194 4.0 11.0 0.00 0.00 0.00 44 1022.0
20260503173054 75 225 6.0 14.0 0.00 0.00 0.00 44 1022.2
20260503171541 75 168 6.0 14.0 0.00 0.00 0.00 42 1022.5